Home   Weather   Atascadero   Past weeks

Flag for USA Past Weather in Atascadero, California, USA — Yesterday and Last 2 Weeks

59 °F

Heavy rain. Fog.

Feels Like: 59 °F
Forecast: 61 / 67 °F
Wind: No wind

Location: Paso Robles Municipal Airport

Current Time: Oct 28, 2016 at 1:31:15 AM

Latest Report: Oct 28, 2016 at 1:04 AM

Visibility: 3 mi

Pressure: 29.92 "Hg

Humidity: 100%

Dew Point: 59 °F

Location of AtascaderoLocation

Past Weather in Atascadero — Graph


Atascadero Temperature Yesterday

Maximum temperature yesterday: 77 °F (at 1:53 PM)
Minimum temperature yesterday: 46 °F (at 6:53 AM)
Average temperature yesterday: 58 °F

High & Low Weather Summary for the Past Weeks

High87 °F (Oct 21, 3:53 PM)100% (Oct 14, 7:53 AM)30.16 "Hg (Oct 14, 7:53 AM)
Low39 °F (Oct 19, 5:53 AM)12% (Oct 19, 4:53 PM)29.81 "Hg (Oct 21, 5:53 PM)
Average61 °F67%30.00 "Hg
* Reported Oct 12 11:53 PM — Oct 27 11:53 PM, Atascadero, Weather by CustomWeather, © 2016

Note: Actual official high and low records may vary slightly from our data, if they occured in-between our weather recording intervals... More about our weather records


Atascadero Weather History for the Previous 24 Hours

Scroll right to see more
Time TempWeatherWind HumidityBarometerVisibility
11:53 PM
Thu, Oct 27
58 °FLight rain. Low clouds.3 mph97%29.90 "Hg10 mi
10:53 PM58 °FLight rain. Mostly cloudy.5 mph97%29.93 "Hg9 mi
9:53 PM57 °FRain. Mostly cloudy.6 mph100%29.94 "Hg8 mi
8:53 PM57 °FRain. Fog.3 mph96%29.96 "Hg6 mi
7:53 PM57 °FLight rain. Mostly cloudy.No wind96%29.97 "Hg10 mi
6:53 PM58 °FLight rain. Mostly cloudy.5 mph97%29.98 "Hg10 mi
5:53 PM57 °FLight rain. Overcast.6 mph93%29.96 "Hg7 mi
4:53 PM70 °FLight rain. Mostly cloudy.8 mph66%29.96 "Hg10 mi
3:53 PM74 °FOvercast.3 mph43%29.92 "Hg10 mi
2:53 PM74 °FLight rain. Overcast.No wind37%29.93 "Hg10 mi
1:53 PM77 °FSunny.No wind29%29.93 "Hg10 mi
12:53 PM74 °FPartly sunny.No wind32%29.96 "Hg10 mi
11:53 AM70 °FScattered clouds.3 mph39%29.98 "Hg10 mi
10:53 AM65 °FSunny.3 mph45%30.00 "Hg10 mi
9:53 AM58 °FPartly sunny.6 mph58%30.03 "Hg10 mi
8:53 AM52 °FSunny.No wind75%30.04 "Hg10 mi
7:53 AM47 °FSunny.No wind83%30.01 "Hg10 mi
6:53 AM46 °FPassing clouds.5 mph86%30.01 "Hg10 mi
5:53 AM47 °FClear.No wind86%29.98 "Hg10 mi
4:53 AM47 °FClear.6 mph90%29.98 "Hg10 mi
3:53 AM47 °FClear.3 mph90%29.98 "Hg10 mi
2:53 AM48 °FClear.3 mph86%30.00 "Hg10 mi
1:53 AM52 °FClear.No wind80%30.01 "Hg10 mi
Weather by CustomWeather, © 2016

See weather overviewHow to use our weather pages